Location: Unspecified
(58.7730°N, 5.8460°E)
Time: 02:03:29
(UTC+02:00)

Cosmos 2058 - Visible Passes

Search period start: 23 June 2017 00:00
Search period end: 03 July 2017 00:00
Orbit: 565 x 584 km, 82.5° (Epoch: 21 June)

Date Brightness Start Highest point End Pass type
(mag) Time Alt. Az. Time Alt. Az. Time Alt. Az.
23 Jun 4.4 01:22:21 10° SW 01:26:12 33° WNW 01:30:05 10° N visible
24 Jun 4.7 01:26:00 10° WSW 01:29:40 28° WNW 01:33:22 10° N visible
25 Jun 5.0 01:29:41 10° WSW 01:33:09 24° WNW 01:36:38 10° N visible
26 Jun 5.3 01:33:27 10° WSW 01:36:39 20° WNW 01:39:52 10° N visible
27 Jun 5.5 01:37:18 10° W 01:40:10 18° NW 01:43:04 10° NNW visible
28 Jun 5.6 01:41:13 10° W 01:43:42 15° NW 01:46:11 10° NNW visible
29 Jun 3.6 00:05:09 10° SSW 00:09:19 57° WNW 00:13:31 10° N visible
29 Jun 5.7 01:45:17 10° WNW 01:47:15 13° NW 01:49:14 10° NNW visible
30 Jun 4.0 00:08:40 10° SW 00:12:44 46° WNW 00:16:51 10° N visible
30 Jun 5.9 01:49:35 10° WNW 01:50:49 11° NW 01:52:03 10° NNW visible
01 Jul 4.4 00:12:13 10° SW 00:16:10 38° WNW 00:20:10 10° N visible
02 Jul 4.7 00:15:49 10° SW 00:19:38 32° WNW 00:23:28 10° N visible
